AXY2001 LFOK-EIDW

Flight info

Callsign AXY2001
Flight time 1h 14m
Altitude 18000
Route DIKOL B3 RINTI/N0471F380 DCT VATRY VATRY4L
Aircraft A346/H-SBDE1E2FHIJ1J3J4J5P2RWXY/EB1D1

Departure

Time 2026-05-05 15:20
Airport Chalons Vatry airport (LFOK)

Arrival

Time 2026-05-05 16:35
Airport Dublin Airport (EIDW)
Time Latitude Longitude Altitude Speed Heading
2026-05-05 15:07 48.77856 4.19530 607 ft 0 kts 11°
2026-05-05 15:13 48.77857 4.19530 607 ft 1 kts 11°
2026-05-05 15:14 48.77873 4.19534 612 ft 3 kts
2026-05-05 15:14 48.77886 4.19529 615 ft 2 kts 333°
2026-05-05 15:14 48.77896 4.19514 623 ft 0 kts 302°
2026-05-05 15:14 48.77897 4.19512 623 ft 1 kts 300°
2026-05-05 15:15 48.77897 4.19511 616 ft 0 kts 298°
2026-05-05 15:15 48.77897 4.19510 616 ft 1 kts 297°
2026-05-05 15:15 48.77901 4.19485 621 ft 5 kts 274°
2026-05-05 15:15 48.77876 4.19425 620 ft 10 kts 205°
2026-05-05 15:16 48.77818 4.19390 623 ft 9 kts 248°
2026-05-05 15:16 48.77808 4.19258 617 ft 15 kts 246°
2026-05-05 15:16 48.77736 4.19110 607 ft 21 kts 260°
2026-05-05 15:16 48.77759 4.18870 603 ft 25 kts 281°
2026-05-05 15:17 48.77796 4.18583 602 ft 29 kts 278°
2026-05-05 15:17 48.77836 4.18262 600 ft 33 kts 282°
2026-05-05 15:17 48.77888 4.17910 597 ft 35 kts 282°
2026-05-05 15:17 48.77924 4.17573 595 ft 21 kts 261°
2026-05-05 15:18 48.77801 4.17445 594 ft 25 kts 213°
2026-05-05 15:18 48.77780 4.17180 591 ft 29 kts 281°
2026-05-05 15:18 48.77821 4.16864 592 ft 32 kts 282°
2026-05-05 15:18 48.77870 4.16518 591 ft 35 kts 282°
2026-05-05 15:19 48.77922 4.16146 587 ft 33 kts 282°
2026-05-05 15:19 48.77978 4.15902 587 ft 17 kts 268°
2026-05-05 15:19 48.77958 4.15898 587 ft 6 kts 102°
2026-05-05 15:19 48.77919 4.16147 587 ft 55 kts 102°
2026-05-05 15:20 48.77801 4.17050 592 ft 118 kts 101°
2026-05-05 15:20 48.77608 4.18549 615 ft 169 kts 102°
2026-05-05 15:20 48.77373 4.20413 1092 ft 181 kts 100°
2026-05-05 15:20 48.77101 4.22289 1905 ft 181 kts 103°
2026-05-05 15:21 48.76787 4.24185 2535 ft 192 kts 103°
2026-05-05 15:21 48.76457 4.26268 2908 ft 214 kts 103°
2026-05-05 15:21 48.76112 4.28572 3381 ft 233 kts 103°
2026-05-05 15:21 48.75881 4.31092 3887 ft 253 kts 85°
2026-05-05 15:22 48.76521 4.33640 4505 ft 268 kts 52°
2026-05-05 15:22 48.78010 4.35346 5340 ft 275 kts 20°
2026-05-05 15:22 48.79260 4.35712 5904 ft 279 kts 358°
2026-05-05 15:22 48.81111 4.34881 6723 ft 283 kts 324°
2026-05-05 15:23 48.82371 4.32635 7575 ft 283 kts 292°
2026-05-05 15:23 48.83093 4.29856 8526 ft 286 kts 295°
2026-05-05 15:23 48.84352 4.27482 9388 ft 294 kts 321°
2026-05-05 15:23 48.86130 4.25895 10271 ft 300 kts 328°
2026-05-05 15:24 48.87887 4.24056 10878 ft 315 kts 321°
2026-05-05 15:24 48.89682 4.21995 11373 ft 332 kts 321°
2026-05-05 15:24 48.91579 4.19803 11858 ft 352 kts 321°
2026-05-05 15:24 48.93578 4.17493 12335 ft 370 kts 321°
2026-05-05 15:25 48.95684 4.15059 12789 ft 388 kts 321°
2026-05-05 15:25 48.97871 4.12534 13460 ft 398 kts 321°
2026-05-05 15:25 49.00089 4.09972 14270 ft 402 kts 321°
2026-05-05 15:25 49.02329 4.07377 15066 ft 407 kts 321°
2026-05-05 15:26 49.04597 4.04748 15836 ft 412 kts 321°
2026-05-05 15:26 49.06890 4.02087 16550 ft 417 kts 321°
2026-05-05 15:26 49.09209 3.99394 17294 ft 422 kts 321°
2026-05-05 15:26 49.11557 3.96663 18079 ft 426 kts 321°
2026-05-05 15:27 49.13929 3.93902 18702 ft 431 kts 321°
2026-05-05 15:27 49.16330 3.91101 19323 ft 436 kts 321°
2026-05-05 15:27 49.18758 3.88266 19999 ft 440 kts 322°
2026-05-05 15:27 49.21197 3.85413 20688 ft 444 kts 322°
2026-05-05 15:28 49.23670 3.82518 21341 ft 449 kts 322°
2026-05-05 15:28 49.26163 3.79598 22011 ft 454 kts 322°
2026-05-05 15:28 49.28685 3.76639 22657 ft 459 kts 322°
2026-05-05 15:28 49.31195 3.73686 23248 ft 463 kts 322°
2026-05-05 15:29 49.33778 3.70641 23762 ft 467 kts 322°
2026-05-05 15:29 49.36363 3.67588 24306 ft 471 kts 322°
2026-05-05 15:29 49.38968 3.64511 24895 ft 474 kts 322°
2026-05-05 15:29 49.41590 3.61410 25458 ft 477 kts 322°
2026-05-05 15:30 49.44246 3.58267 25987 ft 481 kts 322°
2026-05-05 15:30 49.46905 3.55113 26522 ft 484 kts 322°
2026-05-05 15:30 49.49577 3.51943 27110 ft 486 kts 322°
2026-05-05 15:30 49.52264 3.48752 27568 ft 491 kts 322°
2026-05-05 15:31 49.54982 3.45517 28014 ft 493 kts 322°
2026-05-05 15:31 49.57683 3.42299 28728 ft 490 kts 322°
2026-05-05 15:31 49.60372 3.39090 29627 ft 485 kts 322°
2026-05-05 15:31 49.63030 3.35914 30400 ft 482 kts 322°
2026-05-05 15:32 49.65679 3.32742 31033 ft 481 kts 322°
2026-05-05 15:32 49.68326 3.29569 31583 ft 482 kts 322°
2026-05-05 15:32 49.70983 3.26381 32139 ft 482 kts 322°
2026-05-05 15:32 49.73635 3.23196 32674 ft 483 kts 322°
2026-05-05 15:33 49.76291 3.20000 33222 ft 484 kts 321°
2026-05-05 15:33 49.78946 3.16798 33773 ft 484 kts 321°
2026-05-05 15:33 49.81600 3.13593 34279 ft 483 kts 321°
2026-05-05 15:33 49.84241 3.10401 34784 ft 481 kts 321°
2026-05-05 15:34 49.86882 3.07206 35274 ft 481 kts 321°
2026-05-05 15:34 49.89514 3.04016 35717 ft 480 kts 321°
2026-05-05 15:34 49.92145 3.00822 36145 ft 480 kts 321°
2026-05-05 15:34 49.94774 2.97627 36542 ft 480 kts 320°
2026-05-05 15:35 49.97401 2.94430 36968 ft 479 kts 320°
2026-05-05 15:35 50.00022 2.91233 37356 ft 479 kts 320°
2026-05-05 15:35 50.02641 2.88033 37717 ft 478 kts 320°
2026-05-05 15:35 50.05257 2.84834 38066 ft 478 kts 320°
2026-05-05 15:36 50.07877 2.81624 38385 ft 479 kts 320°
2026-05-05 15:36 50.10495 2.78412 38625 ft 480 kts 320°
2026-05-05 15:36 50.13122 2.75183 38801 ft 481 kts 320°
2026-05-05 15:36 50.15758 2.71943 39028 ft 482 kts 320°
2026-05-05 15:37 50.18391 2.68702 39260 ft 481 kts 319°
2026-05-05 15:37 50.21013 2.65467 39490 ft 480 kts 319°
2026-05-05 15:37 50.23635 2.62227 39700 ft 480 kts 320°
2026-05-05 15:37 50.26256 2.58983 39858 ft 481 kts 319°
2026-05-05 15:38 50.28882 2.55728 39867 ft 482 kts 319°
2026-05-05 15:38 50.34111 2.49241 39885 ft 483 kts 319°
2026-05-05 15:39 50.39403 2.42650 39893 ft 482 kts 319°
2026-05-05 15:39 50.44641 2.36112 39893 ft 480 kts 319°
2026-05-05 15:40 50.49831 2.29625 39908 ft 480 kts 319°
2026-05-05 15:40 50.55055 2.23067 39905 ft 480 kts 319°
2026-05-05 15:41 50.60265 2.16498 39904 ft 480 kts 319°
2026-05-05 15:41 50.65472 2.09916 39910 ft 479 kts 319°
2026-05-05 15:42 50.70670 2.03340 39914 ft 479 kts 319°
2026-05-05 15:42 50.75865 1.96732 39923 ft 479 kts 319°
2026-05-05 15:43 50.81057 1.90111 39926 ft 479 kts 320°
2026-05-05 15:43 50.86246 1.83485 39925 ft 479 kts 319°
2026-05-05 15:44 50.91431 1.76845 39921 ft 479 kts 319°
2026-05-05 15:44 50.96580 1.70106 39934 ft 479 kts 315°
2026-05-05 15:45 51.01135 1.62454 39936 ft 476 kts 306°
2026-05-05 15:45 51.04836 1.53775 39937 ft 472 kts 296°
2026-05-05 15:46 51.07614 1.44331 39951 ft 471 kts 290°
2026-05-05 15:46 51.10033 1.34635 39953 ft 471 kts 289°
2026-05-05 15:47 51.12430 1.24895 39955 ft 472 kts 289°
2026-05-05 15:47 51.14834 1.15153 39954 ft 473 kts 290°
2026-05-05 15:48 51.17246 1.05372 39956 ft 472 kts 289°
2026-05-05 15:48 51.19642 0.95611 39954 ft 472 kts 289°
2026-05-05 15:49 51.22025 0.85853 40019 ft 473 kts 290°
2026-05-05 15:49 51.24431 0.75938 40059 ft 474 kts 289°
2026-05-05 15:50 51.26847 0.65947 40091 ft 474 kts 289°
2026-05-05 15:50 51.29239 0.56041 40113 ft 474 kts 289°
2026-05-05 15:51 51.31615 0.46128 40119 ft 474 kts 289°
2026-05-05 15:51 51.33973 0.36234 39981 ft 474 kts 289°
2026-05-05 15:52 51.36347 0.26237 39981 ft 473 kts 289°
2026-05-05 15:52 51.38725 0.16187 39988 ft 478 kts 289°
2026-05-05 15:53 51.41098 0.06110 39989 ft 487 kts 289°
2026-05-05 15:53 51.43539 -0.04312 39959 ft 492 kts 289°
2026-05-05 15:54 51.45944 -0.14622 39960 ft 493 kts 289°
2026-05-05 15:54 51.48349 -0.24972 39959 ft 493 kts 289°
2026-05-05 15:55 51.50744 -0.35339 39959 ft 493 kts 289°
2026-05-05 15:55 51.53085 -0.45518 39961 ft 492 kts 289°
2026-05-05 15:56 51.55543 -0.56265 39959 ft 493 kts 289°
2026-05-05 15:56 51.57924 -0.66729 39964 ft 493 kts 289°
2026-05-05 15:57 51.60305 -0.77237 39965 ft 492 kts 289°
2026-05-05 15:57 51.62641 -0.87607 39961 ft 492 kts 288°
2026-05-05 15:58 51.64904 -0.97698 39989 ft 492 kts 289°
2026-05-05 15:58 51.67225 -1.08107 39987 ft 491 kts 289°
2026-05-05 15:59 51.69538 -1.18515 39987 ft 490 kts 288°
2026-05-05 15:59 51.71833 -1.28904 39985 ft 490 kts 288°
2026-05-05 16:00 51.74111 -1.39270 39984 ft 490 kts 288°
2026-05-05 16:00 51.76401 -1.49743 39989 ft 489 kts 288°
2026-05-05 16:01 51.78659 -1.60117 39987 ft 488 kts 288°
2026-05-05 16:01 51.80902 -1.70475 39986 ft 486 kts 288°
2026-05-05 16:02 51.83125 -1.80801 39999 ft 486 kts 288°
2026-05-05 16:02 51.85357 -1.91210 40010 ft 486 kts 288°
2026-05-05 16:03 51.87575 -2.01602 40015 ft 484 kts 288°
2026-05-05 16:03 51.89801 -2.12096 40005 ft 478 kts 288°
2026-05-05 16:04 51.91937 -2.22223 40011 ft 476 kts 288°
2026-05-05 16:04 51.94095 -2.32491 40014 ft 476 kts 288°
2026-05-05 16:05 51.96239 -2.42745 40015 ft 475 kts 288°
2026-05-05 16:05 51.98364 -2.52980 40013 ft 475 kts 288°
2026-05-05 16:06 52.00472 -2.63171 40010 ft 476 kts 288°
2026-05-05 16:06 52.02591 -2.73458 40013 ft 476 kts 288°
2026-05-05 16:07 52.04681 -2.83661 40006 ft 475 kts 287°
2026-05-05 16:07 52.06405 -2.92117 40007 ft 474 kts 288°
2026-05-05 16:08 52.08471 -3.02325 40009 ft 475 kts 288°
2026-05-05 16:08 52.10541 -3.12581 40011 ft 476 kts 288°
2026-05-05 16:09 52.12597 -3.22818 40018 ft 475 kts 287°
2026-05-05 16:09 52.14638 -3.33039 39606 ft 467 kts 287°
2026-05-05 16:09 52.15639 -3.38082 38983 ft 469 kts 287°
2026-05-05 16:10 52.16645 -3.43155 38269 ft 471 kts 287°
2026-05-05 16:10 52.17649 -3.48246 37501 ft 472 kts 288°
2026-05-05 16:10 52.18655 -3.53355 36753 ft 473 kts 288°
2026-05-05 16:10 52.19661 -3.58475 36083 ft 473 kts 288°
2026-05-05 16:11 52.20663 -3.63583 35388 ft 474 kts 289°
2026-05-05 16:11 52.23676 -3.78990 33204 ft 476 kts 288°
2026-05-05 16:12 52.24681 -3.84150 32405 ft 477 kts 288°
2026-05-05 16:12 52.26689 -3.94530 30683 ft 482 kts 288°
2026-05-05 16:13 52.29691 -4.10168 28398 ft 472 kts 287°
2026-05-05 16:13 52.30661 -4.15266 27868 ft 466 kts 287°
2026-05-05 16:13 52.31603 -4.20219 27390 ft 459 kts 287°
2026-05-05 16:14 52.33477 -4.30110 26376 ft 449 kts 287°
2026-05-05 16:14 52.35296 -4.39755 25500 ft 438 kts 286°
2026-05-05 16:15 52.37065 -4.49179 24657 ft 428 kts 286°
2026-05-05 16:15 52.38789 -4.58406 23813 ft 420 kts 286°
2026-05-05 16:16 52.40479 -4.67481 22885 ft 412 kts 286°
2026-05-05 16:16 52.42136 -4.76432 22018 ft 404 kts 286°
2026-05-05 16:17 52.43755 -4.85221 21203 ft 396 kts 286°
2026-05-05 16:17 52.44556 -4.89589 20753 ft 393 kts 286°
2026-05-05 16:18 52.46126 -4.98181 19884 ft 388 kts 286°
2026-05-05 16:18 52.46904 -5.02451 19459 ft 385 kts 286°
2026-05-05 16:18 52.48428 -5.10841 18633 ft 381 kts 286°
2026-05-05 16:19 52.49181 -5.15006 18201 ft 379 kts 286°
2026-05-05 16:19 52.49930 -5.19154 17750 ft 377 kts 286°
2026-05-05 16:19 52.51405 -5.27351 16919 ft 371 kts 286°
2026-05-05 16:20 52.52851 -5.35433 16133 ft 366 kts 287°
2026-05-05 16:20 52.54275 -5.43415 15346 ft 362 kts 287°
2026-05-05 16:21 52.57040 -5.50117 14497 ft 359 kts 323°
2026-05-05 16:22 52.63974 -5.54457 13189 ft 357 kts 342°
2026-05-05 16:22 52.68684 -5.56852 12359 ft 351 kts 342°
2026-05-05 16:23 52.73339 -5.59254 11524 ft 347 kts 341°
2026-05-05 16:23 52.75543 -5.60937 11294 ft 343 kts 329°
2026-05-05 16:23 52.79461 -5.65215 10756 ft 330 kts 326°
2026-05-05 16:24 52.81350 -5.67298 10487 ft 323 kts 326°
2026-05-05 16:24 52.83204 -5.69310 10255 ft 314 kts 327°
2026-05-05 16:24 52.86746 -5.73087 10017 ft 291 kts 327°
2026-05-05 16:25 52.88447 -5.74885 9731 ft 286 kts 327°
2026-05-05 16:25 52.91792 -5.78409 9059 ft 279 kts 327°
2026-05-05 16:25 52.93420 -5.80125 8758 ft 275 kts 327°
2026-05-05 16:26 52.96644 -5.83521 8121 ft 270 kts 327°
2026-05-05 16:26 52.99777 -5.86826 7545 ft 263 kts 327°
2026-05-05 16:27 53.01318 -5.88453 7255 ft 261 kts 327°
2026-05-05 16:27 53.02844 -5.90066 6955 ft 258 kts 327°
2026-05-05 16:27 53.04351 -5.91660 6673 ft 256 kts 327°
2026-05-05 16:27 53.05851 -5.93248 6398 ft 254 kts 327°
2026-05-05 16:28 53.07350 -5.94838 6104 ft 252 kts 327°
2026-05-05 16:28 53.08846 -5.96426 5794 ft 250 kts 327°
2026-05-05 16:28 53.10318 -5.97988 5514 ft 247 kts 327°
2026-05-05 16:28 53.11764 -5.99522 5236 ft 245 kts 327°
2026-05-05 16:29 53.13197 -6.01044 4980 ft 244 kts 327°
2026-05-05 16:29 53.14622 -6.02561 4701 ft 242 kts 328°
2026-05-05 16:29 53.16038 -6.04071 4422 ft 241 kts 328°
2026-05-05 16:29 53.17427 -6.05553 4149 ft 240 kts 328°
2026-05-05 16:30 53.18828 -6.07048 3887 ft 238 kts 328°
2026-05-05 16:30 53.20234 -6.08549 3610 ft 237 kts 328°
2026-05-05 16:30 53.21626 -6.10024 3333 ft 237 kts 330°
2026-05-05 16:30 53.23050 -6.11320 3222 ft 227 kts 335°
2026-05-05 16:31 53.24478 -6.12387 3220 ft 213 kts 338°
2026-05-05 16:31 53.25797 -6.13334 3211 ft 200 kts 338°
2026-05-05 16:31 53.27065 -6.14238 3175 ft 195 kts 338°
2026-05-05 16:31 53.28286 -6.15113 3075 ft 185 kts 338°
2026-05-05 16:32 53.29446 -6.15945 2867 ft 180 kts 338°
2026-05-05 16:32 53.30590 -6.16765 2582 ft 177 kts 338°
2026-05-05 16:32 53.31713 -6.17576 2359 ft 174 kts 338°
2026-05-05 16:32 53.32823 -6.18373 2131 ft 174 kts 338°
2026-05-05 16:33 53.33946 -6.19179 1910 ft 174 kts 340°
2026-05-05 16:33 53.35071 -6.19978 1682 ft 175 kts 340°
2026-05-05 16:33 53.36179 -6.20766 1434 ft 166 kts 340°
2026-05-05 16:33 53.37219 -6.21518 1193 ft 155 kts 339°
2026-05-05 16:34 53.38193 -6.22225 996 ft 151 kts 338°
2026-05-05 16:34 53.39156 -6.22928 811 ft 150 kts 339°
2026-05-05 16:34 53.40121 -6.23604 648 ft 151 kts 339°
2026-05-05 16:34 53.41076 -6.24312 417 ft 150 kts 338°
2026-05-05 16:35 53.42030 -6.25000 255 ft 149 kts 339°
2026-05-05 16:35 53.42856 -6.25589 228 ft 94 kts 336°
2026-05-05 16:35 53.43234 -6.25866 223 ft 34 kts 336°
2026-05-05 16:35 53.43375 -6.25810 224 ft 24 kts 65°
2026-05-05 16:36 53.43277 -6.25585 226 ft 30 kts 156°
2026-05-05 16:36 53.43062 -6.25439 224 ft 36 kts 158°
2026-05-05 16:36 53.42843 -6.25282 225 ft 21 kts 165°
2026-05-05 16:36 53.42774 -6.25300 225 ft 0 kts 216°
2026-05-05 16:37 53.42713 -6.25395 225 ft 23 kts 225°
2026-05-05 16:37 53.42591 -6.25601 224 ft 27 kts 225°
2026-05-05 16:37 53.42486 -6.25835 219 ft 18 kts 272°
2026-05-05 16:38 53.42505 -6.26074 219 ft 22 kts 275°
2026-05-05 16:38 53.42524 -6.26255 227 ft 12 kts 308°
2026-05-05 16:38 53.42562 -6.26279 223 ft 6 kts 360°
2026-05-05 16:38 53.42589 -6.26281 224 ft 1 kts
2026-05-05 16:39 53.42592 -6.26280 219 ft 1 kts
2026-05-05 16:39 53.42595 -6.26280 219 ft 0 kts